This demonstration page uses our WeatherBlox Daily Observations layout. Learn more.

Left ArrowRight Arrow

39.12711, -84.51439

Hourly Observations for March 7, 2021

Temp ( °F °C ) Dew Point ( °F °C ) Humidity (%) Winds ( mph kmh ) Pressure ( in mb ) Visibility ( mi km ) Precip ( " mm )
12:53 am 00:53 Mostly Clear 29 -1.7 23 -5 78 78 SSW 5 7 30.31 1026 10 16.0934 0 0
1:53 am 01:53 Mostly Cloudy 30 -1.1 24 -4.4 79 79 Calm 30.33 1027 10 16.0934 0 0
2:53 am 02:53 Cloudy 30 -1.1 25 -3.9 82 82 Calm 30.34 1028 10 16.0934 0 0
3:53 am 03:53 Mostly Cloudy 33 0.6 21 -6.1 61 61 Calm 30.35 1028 10 16.0934 0 0
4:53 am 04:53 Cloudy 33 0.6 18 -7.8 54 54 VRB 5 7 30.37 1029 10 16.0934 0 0
5:53 am 05:53 Clear 30 -1.1 18 -7.8 61 61 N 5 7 30.4 1030 10 16.0934 0 0
6:53 am 06:53 Clear 29 -1.7 17 -8.3 61 61 N 6 9 30.42 1030 10 16.0934 0 0
7:53 am 07:53 Sunny 30 -1.1 18 -7.8 61 61 NNE 5 7 30.45 1031 10 16.0934 0 0
8:53 am 08:53 Sunny 34 1.1 18 -7.8 52 52 N 3 6 30.47 1032 10 16.0934 0 0
9:53 am 09:53 Sunny 37 2.8 15 -9.4 41 41 N 3 6 30.48 1032 10 16.0934 0 0
10:53 am 10:53 Sunny 41 5 13 -10.6 32 32 NE 5 7 30.48 1032 10 16.0934 0 0
11:53 am 11:53 Sunny 43 6.1 12 -11.1 28 28 NNE 14 22 30.49 1033 10 16.0934 0 0
12:53 pm 12:53 Sunny 46 7.8 11 -11.7 24 24 NNE 3 6 30.48 1032 10 16.0934 0 0
1:53 pm 13:53 Sunny 47 8.3 9 -12.8 21 21 N 10 17 30.45 1031 10 16.0934 0 0
2:53 pm 14:53 Sunny 50 10 12 -11.1 22 22 N 8 13 30.44 1031 10 16.0934 0 0
3:53 pm 15:53 Sunny 50 10 9 -12.8 19 19 NNW 7 11 30.44 1031 10 16.0934 0 0
4:53 pm 16:53 Sunny 50 10 11 -11.7 21 21 WNW 7 11 30.44 1031 10 16.0934 0 0
5:53 pm 17:53 Sunny 48 8.9 11 -11.7 22 22 N 5 7 30.45 1031 10 16.0934 0 0
6:53 pm 18:53 Clear 44 6.7 12 -11.1 27 27 Calm 30.45 1031 10 16.0934 0 0
7:53 pm 19:53 Clear 38 3.3 24 -4.4 57 57 Calm 30.46 1032 10 16.0934 0 0
8:53 pm 20:53 Clear 36 2.2 27 -2.8 70 70 Calm 30.47 1032 10 16.0934 0 0
9:53 pm 21:53 Clear 34 1.1 26 -3.3 73 73 Calm 30.48 1032 10 16.0934 0 0
10:53 pm 22:53 Clear 32 0 22 -5.6 66 66 Calm 30.48 1032 10 16.0934 0 0
11:53 pm 23:53 Clear 31 -0.6 22 -5.6 69 69 Calm 30.49 1033 10 16.0934 0 0

Powered by AerisWeather